Change the Weather History Date:

Sunday, June 23, 2013

  Actual Average Record
Temperature  
Mean Temperature 58 °F -  
Max Temperature 80 °F 78 °F 94 °F (1954)
Min Temperature 37 °F 37 °F 23 °F (1916)
Degree Days  
Heating Degree Days 6    
Growing Degree Days 8 (Base 50)    
Moisture  
Dew Point 19 °F    
Average Humidity 26    
Maximum Humidity 58    
Minimum Humidity 5    
Precipitation  
Precipitation 0.00 in - - ()
Sea Level Pressure  
Sea Level Pressure 30.06 in    
Wind  
Wind Speed 2 mph (West)    
Max Wind Speed 13 mph    
Max Gust Speed 20 mph    
Visibility 10 miles    
Events      
Averages and records for this station are not official NWS values.
T = Trace of Precipitation, MM = Missing Value Source: NWS Daily Summary

Daily Weather History Graph

Daily Weather History Graph

Search for Another Location

Airport or City:

Trip Planner

Search our weather history database for the weather conditions in past years. The results will help you decide how hot, cold, wet, or windy it might be!

Date:

Astronomy

Jun. 23, 2013 Rise Set
Actual Time 5:37 AM MDT 8:41 PM MDT
Civil Twilight 5:04 AM MDT 9:15 PM MDT
Nautical Twilight 4:22 AM MDT 9:57 PM MDT
Astronomical Twilight 3:32 AM MDT 10:47 PM MDT
Moon 8:56 PM MDT (6/23) 5:58 AM MDT (6/23)
Length of Visible Light 16h 10m
Length of Day
15h 04m
Full, 100% of the Moon is Illuminated
Jun 23
Full
Jun 29
Last Quarter
Jul 8
New
Jul 15
First Quarter
Jul 22
Full

Hourly Weather History & Observations

Time (MDT) Temp. Dew Point Humidity Pressure Visibility Wind Dir Wind Speed Gust Speed Precip Events Conditions
12:15 AM 54.1 °F 17.4 °F 24% 30.12 in 10.0 mi South 4.6 mph - N/A   Clear
12:35 AM 51.8 °F 18.7 °F 27% 30.12 in 10.0 mi Calm Calm - N/A   Clear
12:55 AM 51.6 °F 19.4 °F 28% 30.13 in 10.0 mi Calm Calm - N/A   Clear
1:15 AM 52.7 °F 18.1 °F 26% 30.13 in 10.0 mi Calm Calm - N/A   Clear
1:35 AM 49.1 °F 19.8 °F 31% 30.13 in 10.0 mi Calm Calm - N/A   Clear
1:55 AM 48.9 °F 21.7 °F 34% 30.14 in 10.0 mi Calm Calm - N/A   Clear
2:15 AM 47.3 °F 21.4 °F 36% 30.14 in 10.0 mi Calm Calm - N/A   Clear
2:35 AM 47.1 °F 21.2 °F 36% 30.14 in 10.0 mi Calm Calm - N/A   Clear
2:55 AM 44.8 °F 22.5 °F 41% 30.14 in 10.0 mi Calm Calm - N/A   Clear
3:15 AM 44.8 °F 22.1 °F 41% 30.14 in 10.0 mi Calm Calm - N/A   Clear
3:35 AM 43.7 °F 22.5 °F 43% 30.14 in 10.0 mi Calm Calm - N/A   Clear
3:55 AM 43.3 °F 22.6 °F 44% 30.14 in 10.0 mi Calm Calm - N/A   Clear
4:15 AM 41.4 °F 23.2 °F 48% 30.14 in 10.0 mi Calm Calm - N/A   Clear
4:35 AM 41.0 °F 24.6 °F 52% 30.14 in 10.0 mi Calm Calm - N/A   Clear
4:55 AM 39.9 °F 23.5 °F 52% 30.14 in 10.0 mi Calm Calm - N/A   Clear
5:15 AM 39.9 °F 23.5 °F 52% 30.14 in 10.0 mi Calm Calm - N/A   Clear
5:35 AM 39.2 °F 24.8 °F 56% 30.14 in 10.0 mi Calm Calm - N/A   Clear
5:55 AM 39.4 °F 23.9 °F 54% 30.15 in 10.0 mi Calm Calm - N/A   Clear
6:15 AM 37.8 °F 24.3 °F 58% 30.15 in 10.0 mi Calm Calm - N/A   Clear
6:35 AM 39.4 °F 24.8 °F 56% 30.15 in 10.0 mi Calm Calm - N/A   Clear
6:55 AM 40.3 °F 24.1 °F 52% 30.15 in 10.0 mi Calm Calm - N/A   Clear
7:15 AM 42.3 °F 25.5 °F 52% 30.14 in 10.0 mi Calm Calm - N/A   Clear
7:35 AM 43.5 °F 25.2 °F 48% 30.14 in 10.0 mi Calm Calm - N/A   Clear
7:55 AM 47.3 °F 27.0 °F 45% 30.14 in 10.0 mi Calm Calm - N/A   Clear
8:15 AM 48.4 °F 25.0 °F 40% 30.13 in 10.0 mi Calm Calm - N/A   Clear
8:35 AM 50.4 °F 26.4 °F 39% 30.13 in 10.0 mi Calm Calm - N/A   Clear
8:55 AM 52.7 °F 25.2 °F 34% 30.13 in 10.0 mi Calm Calm - N/A   Clear
9:15 AM 54.5 °F 25.5 °F 33% 30.13 in 10.0 mi Calm Calm - N/A   Clear
9:35 AM 57.2 °F 24.8 °F 29% 30.12 in 10.0 mi Calm Calm - N/A   Clear
9:55 AM 58.5 °F 23.0 °F 26% 30.12 in 10.0 mi Calm Calm - N/A   Clear
10:15 AM 61.9 °F 23.2 °F 23% 30.11 in 10.0 mi Calm Calm - N/A   Clear
10:35 AM 64.4 °F 22.5 °F 20% 30.10 in 10.0 mi Calm Calm - N/A   Clear
10:55 AM 66.2 °F 17.2 °F 15% 30.10 in 10.0 mi Calm Calm - N/A   Clear
11:15 AM 67.8 °F 21.2 °F 17% 30.09 in 10.0 mi Calm Calm - N/A   Clear
11:35 AM 69.1 °F 18.7 °F 15% 30.09 in 10.0 mi Calm Calm - N/A   Clear
11:55 AM 70.2 °F 18.1 °F 14% 30.09 in 10.0 mi South 4.6 mph - N/A   Clear
12:15 PM 70.9 °F 16.0 °F 12% 30.08 in 10.0 mi Calm Calm - N/A   Clear
12:35 PM 73.4 °F 5.2 °F 7% 30.07 in 10.0 mi West 3.5 mph - N/A   Clear
12:55 PM 73.9 °F -0.8 °F 5% 30.06 in 10.0 mi Calm Calm - N/A   Clear
1:15 PM 75.9 °F 6.1 °F 7% 30.05 in 10.0 mi NNW 3.5 mph - N/A   Clear
1:35 PM 76.8 °F 2.3 °F 6% 30.05 in 10.0 mi SW 5.8 mph - N/A   Clear
1:55 PM 77.0 °F 2.7 °F 6% 30.04 in 10.0 mi West 12.7 mph 19.6 mph N/A   Clear
2:15 PM 77.9 °F 5.4 °F 6% 30.03 in 10.0 mi West 10.4 mph - N/A   Clear
2:35 PM 78.1 °F 7.5 °F 7% 30.02 in 10.0 mi West 10.4 mph - N/A   Clear
2:55 PM 78.6 °F 9.0 °F 7% 30.02 in 10.0 mi West 11.5 mph 18.4 mph N/A   Clear
3:15 PM 79.5 °F 9.3 °F 7% 30.01 in 10.0 mi West 8.1 mph 17.3 mph N/A   Clear
3:35 PM 77.4 °F 8.1 °F 7% 30.01 in 10.0 mi SSE 4.6 mph - N/A   Clear
3:55 PM 77.9 °F 8.8 °F 7% 30.00 in 10.0 mi Calm Calm - N/A   Clear
4:15 PM 79.0 °F 9.9 °F 7% 30.00 in 10.0 mi West 3.5 mph - N/A   Clear
4:35 PM 78.6 °F 8.1 °F 7% 29.99 in 10.0 mi NE 3.5 mph - N/A   Clear
4:55 PM 80.1 °F 8.4 °F 7% 29.98 in 10.0 mi East 3.5 mph - N/A   Clear
5:15 PM 77.9 °F 10.8 °F 8% 29.97 in 10.0 mi Calm Calm - N/A   Clear
5:35 PM 78.4 °F 10.4 °F 7% 29.97 in 10.0 mi Calm Calm - N/A   Clear
5:55 PM 79.3 °F 10.9 °F 7% 29.96 in 10.0 mi NNW 5.8 mph - N/A   Clear
6:15 PM 79.3 °F 11.8 °F 8% 29.96 in 10.0 mi NW 5.8 mph - N/A   Clear
6:35 PM 78.3 °F 14.0 °F 9% 29.96 in 10.0 mi West 4.6 mph - N/A   Clear
6:55 PM 77.7 °F 16.5 °F 10% 29.96 in 10.0 mi West 3.5 mph - N/A   Clear
7:15 PM 75.2 °F 14.9 °F 10% 29.96 in 10.0 mi Calm Calm - N/A   Clear
7:35 PM 72.1 °F 25.3 °F 17% 29.96 in 10.0 mi Calm Calm - N/A   Clear
7:55 PM 71.8 °F 20.5 °F 14% 29.96 in 10.0 mi NNE 3.5 mph - N/A   Clear
8:15 PM 68.5 °F 28.0 °F 22% 29.96 in 10.0 mi ESE 4.6 mph - N/A   Clear
8:35 PM 66.2 °F 28.8 °F 25% 29.96 in 10.0 mi East 6.9 mph - N/A   Clear
8:55 PM 65.8 °F 26.6 °F 23% 29.96 in 10.0 mi East 8.1 mph - N/A   Clear
9:15 PM 63.1 °F 26.6 °F 25% 29.97 in 10.0 mi East 6.9 mph - N/A   Clear
9:35 PM 63.9 °F 26.1 °F 24% 29.98 in 10.0 mi East 8.1 mph - N/A   Clear
9:55 PM 63.5 °F 26.4 °F 25% 29.98 in 10.0 mi ENE 5.8 mph - N/A   Clear
10:15 PM 63.9 °F 25.7 °F 24% 29.98 in 10.0 mi East 5.8 mph - N/A   Clear
10:35 PM 61.9 °F 26.1 °F 26% 29.98 in 10.0 mi Calm Calm - N/A   Clear
10:55 PM 60.3 °F 27.0 °F 28% 29.99 in 10.0 mi Calm Calm - N/A   Clear
11:15 PM 58.1 °F 27.5 °F 31% 29.99 in 10.0 mi Calm Calm - N/A   Clear
11:35 PM 56.3 °F 28.6 °F 35% 29.99 in 10.0 mi Calm Calm - N/A   Clear
11:55 PM 54.7 °F 29.3 °F 38% 29.99 in 10.0 mi Calm Calm - N/A   Clear